sat.trackr.live / text

‹ back to catalog

STARLINK-5510

NORAD 55647 · 2023-021V

PAYLOAD ACTIVE UNKNOWN

§ Identity

Operator
Country
US
Launch date
2023-02-17
Launch site
AFWTR
Launch vehicle
Mass (kg)
RCS (m²)

Purposes: comms

External: N2YO · Heavens-Above · Gunter

§ Orbital elements

Epoch: 2026-05-24T23:42:45.634752Z

Period
96.11 min
Inclination
69.9996°
Eccentricity
0.0002674
Mean motion
14.98331444 rev/d
Perigee alt
570.2 km
Apogee alt
573.9 km
Semi-major
6,950.2 km
B*
7.0848e-5
RAAN
351.9400°
Arg perigee
267.8117°
Mean anomaly
92.2736°
Rev number
18,022

§ Raw data

STARLINK-55101 55647U 23021V   26144.98802818  .00000752  00000+0  70848-4 0  99902 55647  69.9996 351.9400 0002674 267.8117  92.2736 14.98331444180223

JSON: /api/v1/satellites/55647 · /tle

For live sub-satellite position, see the globe view (requires WebGL).

§ Visibility from observer

Set your observer location to see the next 7 days of passes ≥ 10°. The values pass through the URL so the page stays shareable.

No JS? Fill the form by hand. The geolocation button needs JavaScript.